Location: Boitzum
(52.1496°N, 9.6943°E)
Time: 07:18:51
(UTC+00:00)

Cosmos 2228 Rocket - Pass Details

Date: 13 January 2026
Orbit: 612 x 647 km, 82.5° (Epoch: 18 February)

Event Time Altitude Azimuth Distance (km) Brightness Sun altitude
Rises 06:38:19 0° 344° (NNW) 2,911 6.1 -6.9°
Reaches altitude 10° 06:40:38 10° 337° (NNW) 1,995 5.2 -6.6°
Maximum altitude 06:44:48 42° 267° (W) 885 3.5 -6.1°
Drops below altitude 10° 06:48:54 10° 197° (SSW) 1,968 5.8 -5.5°
Sets 06:51:11 0° 190° (S) 2,867 6.7 -5.2°
